Time,TemperatureF,DewpointF,PressureIn,WindDirection,WindDirectionDegrees,WindSpeedMPH,WindSpeedGustMPH,Humidity,HourlyPrecipIn,Conditions,Clouds,dailyrainin,SolarRadiationWatts/m^2,SoftwareType,DateUTC
2013-11-15 00:43:00,32.0,29.0,-100.00,SW,226,2.0,7.0,90,0.00,,,0.00,0.000000,,2013-11-15 06:43:00,
2013-11-15 00:53:00,32.0,29.0,-100.00,SW,226,2.0,7.0,90,0.00,,,0.00,0.000000,,2013-11-15 06:53:00,
2013-11-15 01:01:00,32.0,29.0,-100.00,SW,226,2.0,7.0,90,0.00,,,0.00,0.000000,,2013-11-15 07:01:00,
2013-11-15 01:22:00,30.0,29.0,-100.00,SW,234,2.0,6.0,95,0.00,,,0.00,0.000000,,2013-11-15 07:22:00,
2013-11-15 01:32:00,30.0,29.0,-100.00,SW,234,2.0,6.0,95,0.00,,,0.00,0.000000,,2013-11-15 07:32:00,
2013-11-15 01:42:00,30.0,29.0,-100.00,SW,234,2.0,6.0,95,0.00,,,0.00,0.000000,,2013-11-15 07:42:00,
2013-11-15 01:52:00,30.0,29.0,-100.00,SW,234,2.0,6.0,95,0.00,,,0.00,0.000000,,2013-11-15 07:52:00,
2013-11-15 02:01:00,30.0,29.0,-100.00,SW,234,2.0,6.0,95,0.00,,,0.00,0.000000,,2013-11-15 08:01:00,
2013-11-15 02:02:00,29.0,28.0,-100.00,SSW,201,2.0,5.0,97,0.00,,,0.00,0.000000,,2013-11-15 08:02:00,
2013-11-15 02:22:00,29.0,28.0,-100.00,SSW,201,2.0,5.0,97,0.00,,,0.00,0.000000,,2013-11-15 08:22:00,
2013-11-15 02:32:00,29.0,28.0,-100.00,SSW,201,2.0,5.0,97,0.00,,,0.00,0.000000,,2013-11-15 08:32:00,
2013-11-15 02:42:00,29.0,28.0,-100.00,SSW,201,2.0,5.0,97,0.00,,,0.00,0.000000,,2013-11-15 08:42:00,
2013-11-15 02:52:00,29.0,28.0,-100.00,SSW,201,2.0,5.0,97,0.00,,,0.00,0.000000,,2013-11-15 08:52:00,
2013-11-15 03:02:00,30.0,29.0,-100.00,SW,220,3.0,6.0,98,0.00,,,0.00,0.000000,,2013-11-15 09:02:00,
2013-11-15 03:43:00,30.0,29.0,-100.00,SW,220,3.0,6.0,98,0.00,,,0.00,0.000000,,2013-11-15 09:43:00,
2013-11-15 03:53:00,30.0,29.0,-100.00,SW,220,3.0,6.0,98,0.00,,,0.00,0.000000,,2013-11-15 09:53:00,
2013-11-15 04:02:00,30.0,29.0,-100.00,SW,226,3.0,6.0,98,0.00,,,0.00,0.000000,,2013-11-15 10:02:00,
2013-11-15 04:43:00,30.0,29.0,-100.00,SW,226,3.0,6.0,98,0.00,,,0.00,0.000000,,2013-11-15 10:43:00,
2013-11-15 04:52:00,30.0,29.0,-100.00,SW,226,3.0,6.0,98,0.00,,,0.00,0.000000,,2013-11-15 10:52:00,
2013-11-15 05:02:00,31.0,31.0,-100.00,SW,232,3.0,7.0,98,0.00,,,0.00,0.000000,,2013-11-15 11:02:00,
2013-11-15 05:42:00,31.0,31.0,-100.00,SW,232,3.0,7.0,98,0.00,,,0.00,0.000000,,2013-11-15 11:42:00,
2013-11-15 05:52:00,31.0,31.0,-100.00,SW,232,3.0,7.0,98,0.00,,,0.00,0.000000,,2013-11-15 11:52:00,
2013-11-15 06:42:00,30.0,29.0,-100.00,SW,221,3.0,6.0,98,0.00,,,0.00,0.000000,,2013-11-15 12:42:00,
2013-11-15 06:52:00,30.0,29.0,-100.00,SW,221,3.0,6.0,98,0.00,,,0.00,0.000000,,2013-11-15 12:52:00,
2013-11-15 07:01:00,30.0,29.0,-100.00,SW,221,3.0,6.0,98,0.00,,,0.00,0.000000,,2013-11-15 13:01:00,
2013-11-15 07:22:00,30.0,29.0,-100.00,SSW,204,3.0,7.0,98,0.00,,,0.00,1.000000,,2013-11-15 13:22:00,
2013-11-15 07:32:00,30.0,29.0,-100.00,SSW,204,3.0,7.0,98,0.00,,,0.00,1.000000,,2013-11-15 13:32:00,
2013-11-15 07:42:00,30.0,29.0,-100.00,SSW,204,3.0,7.0,98,0.00,,,0.00,1.000000,,2013-11-15 13:42:00,
2013-11-15 07:52:00,30.0,29.0,-100.00,SSW,204,3.0,7.0,98,0.00,,,0.00,1.000000,,2013-11-15 13:52:00,
2013-11-15 08:01:00,30.0,29.0,-100.00,SSW,204,3.0,7.0,98,0.00,,,0.00,1.000000,,2013-11-15 14:01:00,
2013-11-15 08:02:00,31.0,31.0,-100.00,SSW,204,2.0,6.0,98,0.00,,,0.00,41.000000,,2013-11-15 14:02:00,
2013-11-15 08:42:00,31.0,31.0,-100.00,SSW,204,2.0,6.0,98,0.00,,,0.00,41.000000,,2013-11-15 14:42:00,
2013-11-15 08:52:00,31.0,31.0,-100.00,SSW,204,2.0,6.0,98,0.00,,,0.00,41.000000,,2013-11-15 14:52:00,
2013-11-15 09:02:00,32.0,31.0,-100.00,SW,219,4.0,6.0,96,0.00,,,0.00,100.000000,,2013-11-15 15:02:00,
2013-11-15 09:43:00,32.0,31.0,-100.00,SW,219,4.0,6.0,96,0.00,,,0.00,100.000000,,2013-11-15 15:43:00,
2013-11-15 09:53:00,32.0,31.0,-100.00,SW,219,4.0,6.0,96,0.00,,,0.00,100.000000,,2013-11-15 15:53:00,
2013-11-15 10:02:00,38.0,35.0,-100.00,SW,226,3.0,8.0,88,0.00,,,0.00,306.000000,,2013-11-15 16:02:00,
2013-11-15 10:43:00,38.0,35.0,-100.00,SW,226,3.0,8.0,88,0.00,,,0.00,306.000000,,2013-11-15 16:43:00,
2013-11-15 10:53:00,38.0,35.0,-100.00,SW,226,3.0,8.0,88,0.00,,,0.00,306.000000,,2013-11-15 16:53:00,
2013-11-15 11:02:00,44.0,35.0,-100.00,WSW,242,8.0,14.0,71,0.00,,,0.00,467.000000,,2013-11-15 17:02:00,
2013-11-15 11:42:00,44.0,35.0,-100.00,WSW,242,8.0,14.0,71,0.00,,,0.00,467.000000,,2013-11-15 17:42:00,
2013-11-15 11:52:00,44.0,35.0,-100.00,WSW,242,8.0,14.0,71,0.00,,,0.00,467.000000,,2013-11-15 17:52:00,
2013-11-15 12:02:00,47.0,35.0,-100.00,WSW,250,8.0,14.0,63,0.00,,,0.00,495.000000,,2013-11-15 18:02:00,
2013-11-15 12:42:00,47.0,35.0,-100.00,WSW,250,8.0,14.0,63,0.00,,,0.00,495.000000,,2013-11-15 18:42:00,
2013-11-15 12:52:00,47.0,35.0,-100.00,WSW,250,8.0,14.0,63,0.00,,,0.00,495.000000,,2013-11-15 18:52:00,
2013-11-15 13:42:00,49.0,36.0,-100.00,WSW,247,6.0,15.0,60,0.00,,,0.00,465.000000,,2013-11-15 19:42:00,
2013-11-15 13:52:00,49.0,36.0,-100.00,WSW,247,6.0,15.0,60,0.00,,,0.00,465.000000,,2013-11-15 19:52:00,
2013-11-15 14:01:00,49.0,36.0,-100.00,WSW,247,6.0,15.0,60,0.00,,,0.00,465.000000,,2013-11-15 20:01:00,
2013-11-15 14:02:00,50.0,36.0,-100.00,SW,225,5.0,12.0,58,0.00,,,0.00,381.000000,,2013-11-15 20:02:00,
2013-11-15 14:42:00,50.0,36.0,-100.00,SW,225,5.0,12.0,58,0.00,,,0.00,381.000000,,2013-11-15 20:42:00,
2013-11-15 14:52:00,50.0,36.0,-100.00,SW,225,5.0,12.0,58,0.00,,,0.00,381.000000,,2013-11-15 20:52:00,
2013-11-15 15:02:00,49.0,36.0,-100.00,SW,222,4.0,11.0,60,0.00,,,0.00,256.000000,,2013-11-15 21:02:00,
2013-11-15 15:43:00,49.0,36.0,-100.00,SW,222,4.0,11.0,60,0.00,,,0.00,256.000000,,2013-11-15 21:43:00,
2013-11-15 15:55:00,49.0,36.0,-100.00,SW,222,4.0,11.0,60,0.00,,,0.00,256.000000,,2013-11-15 21:55:00,
2013-11-15 16:02:00,46.0,35.0,-100.00,SSW,208,3.0,7.0,66,0.00,,,0.00,100.000000,,2013-11-15 22:02:00,
2013-11-15 16:43:00,46.0,35.0,-100.00,SSW,208,3.0,7.0,66,0.00,,,0.00,100.000000,,2013-11-15 22:43:00,
2013-11-15 16:53:00,46.0,35.0,-100.00,SSW,208,3.0,7.0,66,0.00,,,0.00,100.000000,,2013-11-15 22:53:00,
2013-11-15 17:02:00,39.0,34.0,-100.00,SSE,163,1.0,5.0,82,0.00,,,0.00,5.000000,,2013-11-15 23:02:00,
2013-11-15 17:43:00,39.0,34.0,-100.00,SSE,163,1.0,5.0,82,0.00,,,0.00,5.000000,,2013-11-15 23:43:00,
2013-11-15 17:52:00,39.0,34.0,-100.00,SSE,163,1.0,5.0,82,0.00,,,0.00,5.000000,,2013-11-15 23:52:00,
2013-11-15 18:22:00,37.0,34.0,-100.00,SSW,206,2.0,6.0,87,0.00,,,0.00,0.000000,,2013-11-16 00:22:00,
2013-11-15 18:32:00,37.0,34.0,-100.00,SSW,206,2.0,6.0,87,0.00,,,0.00,0.000000,,2013-11-16 00:32:00,
2013-11-15 18:42:00,37.0,34.0,-100.00,SSW,206,2.0,6.0,87,0.00,,,0.00,0.000000,,2013-11-16 00:42:00,
2013-11-15 18:52:00,37.0,34.0,-100.00,SSW,206,2.0,6.0,87,0.00,,,0.00,0.000000,,2013-11-16 00:52:00,
2013-11-15 19:01:00,37.0,34.0,-100.00,SSW,206,2.0,6.0,87,0.00,,,0.00,0.000000,,2013-11-16 01:01:00,
2013-11-15 19:02:00,36.0,33.0,-100.00,South,190,2.0,8.0,89,0.00,,,0.00,0.000000,,2013-11-16 01:02:00,
2013-11-15 19:22:00,36.0,33.0,-100.00,South,190,2.0,8.0,89,0.00,,,0.00,0.000000,,2013-11-16 01:22:00,
2013-11-15 19:32:00,36.0,33.0,-100.00,South,190,2.0,8.0,89,0.00,,,0.00,0.000000,,2013-11-16 01:32:00,
2013-11-15 19:42:00,36.0,33.0,-100.00,South,190,2.0,8.0,89,0.00,,,0.00,0.000000,,2013-11-16 01:42:00,
2013-11-15 19:52:00,36.0,33.0,-100.00,South,190,2.0,8.0,89,0.00,,,0.00,0.000000,,2013-11-16 01:52:00,
2013-11-15 20:02:00,35.0,32.0,-100.00,SSE,161,1.0,6.0,90,0.00,,,0.00,0.000000,,2013-11-16 02:02:00,
2013-11-15 20:42:00,35.0,32.0,-100.00,SSE,161,1.0,6.0,90,0.00,,,0.00,0.000000,,2013-11-16 02:42:00,
2013-11-15 20:52:00,35.0,32.0,-100.00,SSE,161,1.0,6.0,90,0.00,,,0.00,0.000000,,2013-11-16 02:52:00,
2013-11-15 21:02:00,34.0,31.0,-100.00,SSE,168,2.0,5.0,90,0.00,,,-99.99,0.000000,,2013-11-16 03:02:00,
2013-11-15 21:44:00,34.0,31.0,-100.00,SSE,168,2.0,5.0,90,0.00,,,-99.99,0.000000,,2013-11-16 03:44:00,
2013-11-15 21:55:00,34.0,31.0,-100.00,SSE,168,2.0,5.0,90,0.00,,,-99.99,0.000000,,2013-11-16 03:55:00,
2013-11-15 22:02:00,35.0,31.0,-100.00,South,182,3.0,8.0,86,0.00,,,0.00,0.000000,,2013-11-16 04:02:00,
2013-11-15 22:43:00,35.0,31.0,-100.00,South,182,3.0,8.0,86,0.00,,,0.00,0.000000,,2013-11-16 04:43:00,
2013-11-15 22:53:00,35.0,31.0,-100.00,South,182,3.0,8.0,86,0.00,,,0.00,0.000000,,2013-11-16 04:53:00,
2013-11-15 23:02:00,34.0,31.0,-100.00,South,186,2.0,6.0,88,0.00,,,0.00,0.000000,,2013-11-16 05:02:00,
2013-11-15 23:44:00,34.0,31.0,-100.00,South,186,2.0,6.0,88,0.00,,,0.00,0.000000,,2013-11-16 05:44:00,
2013-11-15 23:53:00,34.0,31.0,-100.00,South,186,2.0,6.0,88,0.00,,,0.00,0.000000,,2013-11-16 05:53:00,